Weather History for Newcastle, WY

Change the Weather History Date:

Thursday, October 31, 2013

  Actual Average (KCUT) Record (KCUT)
Temperature  
Mean Temperature 40 °F 38 °F  
Max Temperature 50 °F 49 °F 73 °F (1950)
Min Temperature 30 °F 27 °F -1 °F (1991)
Degree Days  
Heating Degree Days 25 27  
Month to date heating degree days 694  
Since 1 July heating degree days 1179  
Cooling Degree Days 0 0  
Month to date cooling degree days 0  
Year to date cooling degree days 177  
Moisture  
Dew Point 30 °F    
Average Humidity 74    
Maximum Humidity 93    
Minimum Humidity 43    
Precipitation  
Precipitation 0.00 in 0.02 in 1.59 in (1974)
Month to date precipitation 1.47  
Year to date precipitation 17.96  
Sea Level Pressure  
Sea Level Pressure 29.75 in    
Wind  
Wind Speed 11 mph (NW)    
Max Wind Speed 25 mph    
Max Gust Speed 32 mph    
Visibility 10 miles    
Events Rain    
T = Trace of Precipitation, MM = Missing Value Source: NWS Daily Summary

Daily Weather History Graph

Daily Weather History Graph

Search for Another Location

Airport:

Trip Planner

Search our weather history database for the weather conditions in past years. The results will help you decide how hot, cold, wet, or windy it might be!

Date:

Astronomy

Oct. 31, 2013 Rise Set
Actual Time 7:32 AM MDT 5:48 PM MDT
Civil Twilight 7:02 AM MDT 6:18 PM MDT
Nautical Twilight 6:28 AM MDT 6:52 PM MDT
Astronomical Twilight 5:55 AM MDT 7:25 PM MDT
Moon 4:18 AM MDT (10/31) 4:12 PM MDT (10/31)
Length of Visible Light 11h 15m
Length of Day
10h 15m
Waning Crescent, 9% of the Moon is Illuminated
Oct 31
Waning Crescent
Nov 3
New
Nov 9
First Quarter
Nov 17
Full
Nov 25
Last Quarter

Hourly Weather History & Observations

Time (MDT) Temp. Windchill Dew Point Humidity Pressure Visibility Wind Dir Wind Speed Gust Speed Precip Events Conditions
12:15 AM 35.6 °F 29.9 °F 30.2 °F 81% 29.76 in 10.0 mi NW 6.9 mph - N/A   Clear
12:35 AM 33.8 °F 27.7 °F 30.2 °F 87% 29.76 in 10.0 mi NW 6.9 mph - N/A   Clear
12:55 AM 32.0 °F 25.6 °F 28.4 °F 87% 29.76 in 10.0 mi NW 6.9 mph - N/A   Clear
1:15 AM 32.0 °F 28.7 °F 28.4 °F 87% 29.77 in 10.0 mi NW 3.5 mph - N/A   Clear
1:35 AM 32.0 °F 27.5 °F 28.4 °F 87% 29.76 in 10.0 mi NNW 4.6 mph - N/A   Clear
1:55 AM 32.0 °F 25.6 °F 28.4 °F 87% 29.76 in 10.0 mi NNW 6.9 mph - N/A   Clear
2:15 AM 32.0 °F 25.6 °F 28.4 °F 87% 29.76 in 10.0 mi NNW 6.9 mph - N/A   Clear
2:35 AM 30.2 °F 24.3 °F 28.4 °F 93% 29.75 in 10.0 mi NW 5.8 mph - N/A   Clear
2:55 AM 33.8 °F 27.0 °F 28.4 °F 81% 29.75 in 10.0 mi NNW 8.1 mph - N/A   Clear
3:15 AM 32.0 °F 26.4 °F 28.4 °F 87% 29.76 in 10.0 mi NW 5.8 mph - N/A   Clear
3:35 AM 32.0 °F 23.0 °F 28.4 °F 87% 29.75 in 10.0 mi NNW 11.5 mph - N/A   Clear
3:55 AM 33.8 °F 26.4 °F 28.4 °F 81% 29.74 in 10.0 mi NNW 9.2 mph - N/A   Clear
4:15 AM 32.0 °F 23.0 °F 28.4 °F 87% 29.75 in 10.0 mi NNW 11.5 mph - N/A   Clear
4:35 AM 32.0 °F 22.1 °F 28.4 °F 87% 29.74 in 10.0 mi NNW 13.8 mph - N/A   Clear
4:55 AM 32.0 °F 22.5 °F 28.4 °F 87% 29.74 in 10.0 mi NW 12.7 mph - N/A   Clear
5:15 AM 32.0 °F 21.6 °F 28.4 °F 87% 29.75 in 10.0 mi NW 15.0 mph - N/A   Clear
5:35 AM 32.0 °F 22.1 °F 28.4 °F 87% 29.76 in 10.0 mi NNW 13.8 mph - N/A   Clear
5:55 AM 32.0 °F 23.6 °F 28.4 °F 87% 29.76 in 10.0 mi NW 10.4 mph - N/A   Clear
6:15 AM 32.0 °F 23.0 °F 26.6 °F 80% 29.76 in 10.0 mi NW 11.5 mph - N/A   Clear
6:35 AM 32.0 °F 23.6 °F 28.4 °F 87% 29.76 in 10.0 mi NW 10.4 mph - N/A   Clear
6:55 AM 32.0 °F 23.6 °F 26.6 °F 80% 29.77 in 10.0 mi NNW 10.4 mph - N/A   Clear
7:15 AM 32.0 °F 24.8 °F 26.6 °F 80% 29.76 in 10.0 mi NNW 8.1 mph - N/A   Clear
7:35 AM 32.0 °F 24.2 °F 26.6 °F 80% 29.76 in 10.0 mi NNW 9.2 mph - N/A   Clear
7:55 AM 32.0 °F 24.2 °F 26.6 °F 80% 29.77 in 10.0 mi NW 9.2 mph - N/A   Clear
8:15 AM 32.0 °F 25.6 °F 26.6 °F 80% 29.78 in 10.0 mi NNW 6.9 mph - N/A   Clear
8:35 AM 32.0 °F 23.0 °F 28.4 °F 87% 29.78 in 10.0 mi NNW 11.5 mph - N/A   Clear
8:55 AM 32.0 °F 23.6 °F 28.4 °F 87% 29.78 in 10.0 mi NW 10.4 mph - N/A   Clear
9:15 AM 33.8 °F 25.8 °F 28.4 °F 81% 29.78 in 10.0 mi NW 10.4 mph - N/A   Scattered Clouds
9:35 AM 37.4 °F 29.8 °F 28.4 °F 70% 29.78 in 10.0 mi NW 11.5 mph - N/A   Scattered Clouds
9:55 AM 39.2 °F 32.0 °F 28.4 °F 65% 29.78 in 10.0 mi NW 11.5 mph 16.1 mph N/A   Scattered Clouds
10:15 AM 37.4 °F 29.8 °F 28.4 °F 70% 29.78 in 10.0 mi NW 11.5 mph - N/A   Scattered Clouds
10:35 AM 39.2 °F 33.0 °F 30.2 °F 70% 29.78 in 10.0 mi NW 9.2 mph - N/A   Scattered Clouds
10:55 AM 41.0 °F 33.9 °F 30.2 °F 65% 29.78 in 10.0 mi NW 12.7 mph - N/A   Scattered Clouds
11:15 AM 41.0 °F 32.2 °F 28.4 °F 61% 29.78 in 10.0 mi NW 18.4 mph 24.2 mph N/A   Clear
11:35 AM 42.8 °F 35.1 °F 28.4 °F 57% 29.78 in 10.0 mi NW 16.1 mph - N/A   Clear
11:55 AM 42.8 °F 35.4 °F 28.4 °F 57% 29.77 in 10.0 mi NNW 15.0 mph 25.3 mph N/A   Scattered Clouds
12:15 PM 44.6 °F 36.4 °F 28.4 °F 53% 29.77 in 10.0 mi NW 20.7 mph 28.8 mph N/A   Scattered Clouds
12:35 PM 44.6 °F 36.9 °F 28.4 °F 53% 29.75 in 10.0 mi NW 18.4 mph 29.9 mph N/A   Clear
12:55 PM 44.6 °F 35.9 °F 28.4 °F 53% 29.74 in 10.0 mi WNW 23.0 mph 29.9 mph N/A   Clear
1:15 PM 46.4 °F 39.2 °F 28.4 °F 50% 29.73 in 10.0 mi NW 18.4 mph 25.3 mph N/A   Clear
1:35 PM 46.4 °F 38.5 °F 28.4 °F 50% 29.72 in 10.0 mi NW 21.9 mph 27.6 mph N/A   Scattered Clouds
1:55 PM 44.6 °F 36.9 °F 28.4 °F 53% 29.71 in 10.0 mi NW 18.4 mph 27.6 mph N/A   Mostly Cloudy
2:15 PM 46.4 °F 39.0 °F 26.6 °F 46% 29.71 in 10.0 mi NW 19.6 mph 26.5 mph N/A   Mostly Cloudy
2:35 PM 48.2 °F - 28.4 °F 46% 29.70 in 10.0 mi WNW 19.6 mph 24.2 mph N/A   Scattered Clouds
2:55 PM 50.0 °F - 28.4 °F 43% 29.70 in 10.0 mi NW 23.0 mph 32.2 mph N/A   Scattered Clouds
3:15 PM 50.0 °F - 28.4 °F 43% 29.70 in 10.0 mi NW 23.0 mph 31.1 mph N/A   Scattered Clouds
3:35 PM 48.2 °F - 28.4 °F 46% 29.70 in 10.0 mi NW 21.9 mph 28.8 mph N/A   Mostly Cloudy
3:55 PM 46.4 °F 38.7 °F 28.4 °F 50% 29.70 in 10.0 mi NW 20.7 mph 25.3 mph N/A   Mostly Cloudy
4:15 PM 46.4 °F 40.1 °F 30.2 °F 53% 29.70 in 10.0 mi NW 15.0 mph 20.7 mph N/A   Mostly Cloudy
4:35 PM 46.4 °F 40.1 °F 30.2 °F 53% 29.70 in 10.0 mi NW 15.0 mph 20.7 mph N/A   Scattered Clouds
4:55 PM 46.4 °F 39.2 °F 28.4 °F 50% 29.71 in 10.0 mi NW 18.4 mph 23.0 mph N/A   Scattered Clouds
5:15 PM 44.6 °F 36.1 °F 30.2 °F 57% 29.72 in 10.0 mi WNW 21.9 mph 25.3 mph N/A Rain Light Rain
5:35 PM 44.6 °F 37.4 °F 32.0 °F 61% 29.72 in 10.0 mi WNW 16.1 mph 23.0 mph N/A   Mostly Cloudy
5:55 PM 42.8 °F 36.6 °F 32.0 °F 66% 29.71 in 10.0 mi WNW 11.5 mph - N/A   Mostly Cloudy
6:15 PM 41.0 °F 35.2 °F 32.0 °F 70% 29.71 in 10.0 mi WNW 9.2 mph - N/A   Scattered Clouds
6:35 PM 42.8 °F 37.5 °F 32.0 °F 66% 29.72 in 10.0 mi NW 9.2 mph - N/A   Clear
6:55 PM 41.0 °F 35.8 °F 32.0 °F 70% 29.73 in 10.0 mi NW 8.1 mph - N/A   Clear
7:15 PM 41.0 °F 35.8 °F 32.0 °F 70% 29.73 in 10.0 mi NW 8.1 mph - N/A   Scattered Clouds
7:35 PM 41.0 °F 36.4 °F 32.0 °F 70% 29.74 in 10.0 mi NW 6.9 mph - N/A   Scattered Clouds
7:55 PM 41.0 °F 30.7 °F 35.6 °F 81% 29.76 in 7.0 mi NNW 25.3 mph 31.1 mph N/A Rain Light Rain
8:15 PM 39.2 °F 30.5 °F 35.6 °F 87% 29.75 in 10.0 mi NW 16.1 mph 23.0 mph N/A Rain Light Rain
8:35 PM 37.4 °F 29.8 °F 35.6 °F 93% 29.75 in 10.0 mi NNW 11.5 mph - N/A   Mostly Cloudy
8:55 PM 37.4 °F 30.8 °F 35.6 °F 93% 29.76 in 10.0 mi NW 9.2 mph - N/A   Mostly Cloudy
9:15 PM 37.4 °F 30.3 °F 35.6 °F 93% 29.77 in 10.0 mi NNW 10.4 mph - N/A   Mostly Cloudy
9:35 PM 37.4 °F 30.8 °F 35.6 °F 93% 29.77 in 10.0 mi NNW 9.2 mph - N/A   Overcast
9:55 PM 37.4 °F 31.4 °F 35.6 °F 93% 29.78 in 10.0 mi NW 8.1 mph - N/A   Overcast
10:15 PM 37.4 °F 32.1 °F 35.6 °F 93% 29.79 in 10.0 mi NNW 6.9 mph - N/A   Overcast
10:35 PM 37.4 °F 31.4 °F 35.6 °F 93% 29.80 in 10.0 mi NNW 8.1 mph - N/A   Overcast
10:55 PM 37.4 °F 30.8 °F 35.6 °F 93% 29.80 in 10.0 mi NW 9.2 mph - N/A   Mostly Cloudy
11:15 PM 37.4 °F 29.8 °F 33.8 °F 87% 29.80 in 10.0 mi NW 11.5 mph - N/A   Overcast
11:35 PM 37.4 °F 29.3 °F 33.8 °F 87% 29.81 in 10.0 mi NW 12.7 mph 19.6 mph N/A   Overcast